[[{"header":{"parameterUnit":"m.s-1","parameterCategory":1,"la1":30.2992,"la2":30.254,"lo1":-89.0895,"lo2":-89.0443,"dy":0.0025,"dx":0.0025,"nx":19,"ny":19,"refTime":"2026-03-19T09:00:00:Z","depth":0,"parameterNumber":2,"parameterNumberName":"U-component_of_WINDS"},"data":[0,0,0,0.7275,0.7276,0.7346,0.7346,0.7428,0.7428,0,0,0,0,0,0,0,0,0,0,0,0.7248,0.7248,0.7274,0.7276,0.7346,0.7346,0.7427,0.7428,0,0,0,0,0,0,0,0,0,0,0,0.7248,0.7248,0.7249,0.7276,0.7346,0.7346,0.7427,0.7378,0,0,0,0,0,0,0,0,0,0,0.7311,0.7281,0.7248,0.7249,0.7277,0.7346,0.7347,0.7375,0.7381,0.7392,0,0.74,0,0.7415,0.7433,0.7433,0,0,0,0.7281,0.7276,0.73,0.7249,0.7277,0.7346,0.7316,0.7378,0.7384,0.7399,0.7401,0.7404,0.7417,0.7433,0.7434,0.7482,0.7482,0,0,0.7277,0.7258,0.7296,0.7304,0.7292,0.7313,0.7318,0.7382,0.7384,0.7402,0.7407,0.7418,0.7434,0.7435,0.7482,0.7482,0,0,0,0.7262,0.7255,0.7278,0.73,0.7314,0.7315,0.732,0.7381,0.739,0.7407,0.7419,0.7434,0.7435,0.7482,0.7482,0.7465,0,0,0,0.726,0.7247,0.7276,0.7265,0.7312,0.7348,0.7317,0.7385,0.7393,0.7418,0.7434,0.7436,0.7482,0.7482,0.7465,0.7459,0,0,0,0.7245,0.7245,0.7253,0.7264,0.7293,0.7347,0.736,0.7387,0.74,0.7433,0.7436,0.7482,0.7482,0.7465,0.746,0.7466,0,0,0,0.7224,0.7237,0.7252,0.7271,0.7292,0.7336,0.736,0.7393,0.742,0.7435,0.7482,0.7482,0.7466,0.7461,0.7467,0.7468,0.7467,0,0,0.723,0.7237,0.7249,0.7265,0.7301,0.7326,0.736,0.7402,0.7423,0.7462,0.7463,0.7465,0.746,0.7466,0.7467,0.7466,0,0,0,0.7244,0.7253,0.7267,0.7291,0.7323,0.735,0.7389,0.7405,0.7439,0.7439,0.7469,0.7467,0.7472,0.7473,0.7472,0.7477,0.7482,0.7482,0.7482,0.7225,0.725,0.7272,0.7306,0.7329,0.7369,0.739,0.7418,0.7438,0.7444,0.7456,0.7453,0.7454,0.7453,0.7458,0.7459,0.7459,0.7459,0.7459,0.7235,0.7251,0.7276,0.7306,0.7333,0.7358,0.7398,0.741,0.7438,0.7447,0.7452,0.7458,0.7451,0.7457,0.7458,0.7458,0.7458,0.7458,0.7458,0.7225,0.7237,0.7255,0.7292,0.7318,0.7352,0.7378,0.7402,0.7424,0.7429,0.7444,0.7444,0.7447,0.7434,0.7434,0.7434,0.7434,0.7434,0.7434,0.7206,0.7228,0.7247,0.7282,0.73,0.7327,0.7367,0.7386,0.7413,0.7429,0.7429,0.7447,0.7446,0.7445,0.7434,0.7434,0.7434,0.7434,0.7434,0.7207,0.721,0.7239,0.7257,0.73,0.7324,0.7354,0.7391,0.741,0.7421,0.7439,0.7434,0.7443,0.7444,0.7443,0.7433,0.7433,0.7433,0.7433,0.7198,0.7205,0.7239,0.7267,0.7297,0.7327,0.7358,0.7389,0.7422,0.7436,0.7441,0.7442,0.7442,0.7451,0.7452,0.7452,0.7444,0.7444,0.7444,0.7199,0.721,0.7232,0.7264,0.73,0.733,0.736,0.7391,0.7429,0.7445,0.7447,0.7446,0.7449,0.7448,0.7464,0.7464,0.7465,0,0]},{"header":{"parameterUnit":"m.s-1","parameterCategory":1,"la1":30.2992,"la2":30.254,"lo1":-89.0895,"lo2":-89.0443,"dy":0.0025,"dx":0.0025,"nx":19,"ny":19,"refTime":"2026-03-19T09:00:00:Z","depth":0,"parameterNumber":3,"parameterNumberName":"V-component_of_WINDS"},"data":[0,0,0,4.0492,4.049,4.0413,4.0413,4.031,4.0309,0,0,0,0,0,0,0,0,0,0,0,4.0516,4.0515,4.0492,4.049,4.0413,4.0413,4.031,4.0309,0,0,0,0,0,0,0,0,0,0,0,4.0516,4.0515,4.0514,4.049,4.0413,4.0413,4.0311,4.0369,0,0,0,0,0,0,0,0,0,0,4.0444,4.0468,4.0515,4.0514,4.0489,4.0413,4.0413,4.0372,4.0365,4.0345,0,4.033,0,4.0318,4.0303,4.0302,0,0,0,4.0488,4.0474,4.0453,4.0514,4.0489,4.0413,4.0447,4.0368,4.0361,4.0336,4.0328,4.0325,4.0317,4.0302,4.0301,4.0199,4.0198,0,0,4.0492,4.0501,4.0458,4.0448,4.0464,4.045,4.0445,4.0364,4.0354,4.0328,4.0322,4.0315,4.0301,4.0301,4.0199,4.0199,0,0,0,4.0506,4.0504,4.0485,4.0452,4.0439,4.0447,4.0442,4.0358,4.0351,4.0321,4.0314,4.0301,4.03,4.0199,4.0199,4.0191,0,0,0,4.0508,4.0512,4.0487,4.0492,4.0441,4.0398,4.0438,4.0357,4.0348,4.0314,4.0301,4.0299,4.02,4.0199,4.0192,4.0185,0,0,0,4.052,4.0514,4.0504,4.0493,4.0461,4.04,4.0388,4.0355,4.0343,4.0302,4.0298,4.02,4.0199,4.0193,4.0187,4.0162,0,0,0,4.0534,4.0495,4.0504,4.0457,4.0461,4.0397,4.0388,4.0339,4.0303,4.03,4.02,4.0199,4.0194,4.0188,4.0163,4.0143,4.0135,0,0,4.0489,4.049,4.0462,4.0467,4.0405,4.0408,4.0342,4.0298,4.0283,4.0227,4.0224,4.0192,4.0187,4.0162,4.0092,4.0086,0,0,0,4.045,4.043,4.0412,4.038,4.0349,4.0321,4.0286,4.027,4.0223,4.0258,4.0176,4.0173,4.0157,4.0147,4.0142,4.0129,4.0195,4.0195,4.0195,4.0398,4.0386,4.0339,4.0317,4.0287,4.0254,4.0227,4.0199,4.0191,4.0172,4.0155,4.0115,4.0103,4.0099,4.0085,4.0144,4.0143,4.0143,4.0143,4.0332,4.0301,4.0297,4.025,4.0235,4.0194,4.016,4.0157,4.0114,4.0126,4.0112,4.0125,4.0094,4.0081,4.0143,4.0143,4.0143,4.0143,4.0143,4.0296,4.0279,4.0264,4.0219,4.0185,4.0163,4.0124,4.0111,4.0098,4.0085,4.0065,4.0066,4.0064,4.0077,4.0077,4.0077,4.0077,4.0076,4.0076,4.0265,4.0248,4.0218,4.0184,4.0164,4.0134,4.0102,4.008,4.0052,4.0045,4.0045,4.004,4.0094,4.0108,4.0074,4.0074,4.0075,4.0075,4.0075,4.02,4.0214,4.0169,4.0149,4.0108,4.0075,4.0061,4.0018,3.9998,3.9978,3.9977,4.002,4.0017,4.0021,4.0032,3.998,3.998,3.998,3.998,4.017,4.0169,4.0122,4.0091,4.0058,4.0042,3.9989,3.9963,3.9938,3.9924,3.993,3.9944,3.9949,3.9943,3.9949,3.9959,3.989,3.989,3.989,4.013,4.0126,4.0085,4.0065,4.0033,4.0005,3.9955,3.9916,3.989,3.9886,3.9913,3.9917,3.994,3.9948,3.9943,3.9952,3.997,0,0]}]]